W2CS Weather Reports


time (UTC)temp
C
wind
direction
speed
KPH
gust
KPH
rain 1hr
cm
rain 24hr
cm
rain mn
cm
humidity
%
barometer
mb
20260506170538 17 56 1.6 4.8 0.00 0.00 0.00 80 1011.5
20260506170053 17 307 1.6 8.0 0.00 0.00 0.00 80 1011.6
20260506165540 17 353 1.6 8.0 0.00 0.00 0.00 82 1011.7
20260506165040 17 0 1.6 6.4 0.00 0.00 0.00 82 1011.7
20260506164551 17 319 1.6 6.4 0.00 0.00 0.00 84 1011.9
20260506164038 16 160 1.6 6.4 0.00 0.00 0.00 83 1012.0
20260506163535 16 353 1.6 6.4 0.00 0.00 0.00 82 1011.9
20260506163055 16 21 1.6 6.4 0.00 0.00 0.00 83 1012.1
20260506162539 16 289 1.6 9.7 0.00 0.00 0.00 83 1012.2
20260506162040 16 0 0.0 9.7 0.00 0.00 0.00 83 1012.3
20260506161603 16 0 1.6 9.7 0.00 0.00 0.00 81 1012.2
20260506161039 17 80 1.6 6.4 0.00 0.00 0.00 80 1012.3
20260506160540 17 352 0.0 4.8 0.00 0.00 0.00 79 1012.4
20260506160056 17 149 1.6 6.4 0.00 0.00 0.00 79 1012.5
20260506155539 18 178 1.6 6.4 0.00 0.00 0.00 77 1012.7
20260506155037 18 0 0.0 4.8 0.00 0.00 0.00 77 1012.8
20260506154556 19 185 1.6 6.4 0.00 0.00 0.00 79 1012.6
20260506154044 18 320 1.6 6.4 0.00 0.00 0.00 80 1012.8
20260506153539 19 0 1.6 8.0 0.00 0.00 0.00 78 1012.8
20260506153045 18 271 1.6 8.0 0.00 0.00 0.00 80 1012.7
20260506152539 18 91 1.6 6.4 0.00 0.00 0.00 78 1012.9
20260506152043 18 304 1.6 4.8 0.00 0.00 0.00 79 1012.9
20260506151602 18 0 0.0 8.0 0.00 0.00 0.00 77 1013.1
20260506151038 18 236 1.6 8.0 0.00 0.00 0.00 80 1013.0
20260506150540 18 264 0.0 6.4 0.00 0.00 0.00 79 1013.1
20260506150049 18 165 1.6 6.4 0.00 0.00 0.00 81 1013.0
20260506145539 18 0 1.6 4.8 0.00 0.00 0.00 80 1012.9
20260506145038 18 0 0.0 4.8 0.00 0.00 0.00 78 1012.7
20260506144551 18 0 0.0 4.8 0.00 0.00 0.00 81 1013.0
20260506144041 18 0 0.0 3.2 0.00 0.00 0.00 82 1012.9
20260506143539 17 164 0.0 4.8 0.00 0.00 0.00 82 1013.0
20260506143056 17 164 0.0 4.8 0.00 0.00 0.00 81 1012.7
20260506142538 17 170 0.0 4.8 0.00 0.00 0.00 82 1012.8
20260506142038 17 89 0.0 8.0 0.00 0.00 0.00 83 1012.9
20260506141554 17 18 1.6 8.0 0.00 0.00 0.00 81 1012.7
20260506141039 17 226 0.0 4.8 0.00 0.00 0.00 83 1012.5
20260506140542 17 0 0.0 3.2 0.00 0.00 0.00 80 1012.6
20260506140104 17 326 1.6 4.8 0.00 0.00 0.00 80 1012.8
20260506135539 18 0 1.6 4.8 0.00 0.00 0.00 81 1012.8
20260506135039 18 148 1.6 4.8 0.00 0.00 0.00 80 1012.8
20260506134550 18 331 1.6 6.4 0.00 0.00 0.00 82 1012.9
20260506134039 18 255 1.6 6.4 0.00 0.00 0.00 81 1012.9
20260506133539 18 25 1.6 6.4 0.00 0.00 0.00 82 1013.0
20260506133051 17 50 1.6 4.8 0.00 0.00 0.00 82 1012.9
20260506132539 17 332 1.6 4.8 0.00 0.00 0.00 83 1012.8
20260506132043 17 6 1.6 8.0 0.00 0.00 0.00 82 1012.8
20260506131553 17 0 1.6 8.0 0.00 0.00 0.00 83 1012.7
20260506131040 17 104 1.6 6.4 0.00 0.00 0.00 83 1012.6
20260506130540 17 295 1.6 6.4 0.00 0.00 0.00 83 1012.6
20260506125539 17 106 0.0 4.8 0.00 0.00 0.00 84 1012.8
20260506125040 16 302 1.6 9.7 0.00 0.00 0.00 84 1012.7
20260506124550 16 131 0.0 9.7 0.00 0.00 0.00 85 1012.6
20260506124039 16 67 0.0 8.0 0.00 0.00 0.00 85 1012.7
20260506123539 16 85 0.0 4.8 0.00 0.00 0.00 86 1012.8
20260506123048 16 267 0.0 3.2 0.00 0.00 0.00 86 1012.9
20260506122539 15 173 0.0 3.2 0.00 0.00 0.00 86 1012.8
20260506122038 15 0 0.0 6.4 0.00 0.00 0.00 86 1012.8
20260506121547 15 0 0.0 6.4 0.00 0.00 0.00 87 1012.7
20260506121039 15 347 1.6 6.4 0.00 0.00 0.00 87 1012.7
20260506120539 15 0 1.6 6.4 0.00 0.00 0.00 87 1012.8
20260506120053 15 321 0.0 4.8 0.00 0.00 0.00 88 1012.8
20260506115539 14 0 1.6 4.8 0.00 0.00 0.00 89 1012.9
20260506115039 14 0 0.0 4.8 0.00 0.00 0.00 89 1013.0
20260506114548 13 0 1.6 4.8 0.00 0.00 0.00 90 1012.9
20260506114039 13 197 0.0 4.8 0.00 0.00 0.00 91 1013.0
20260506113539 13 92 1.6 4.8 0.00 0.00 0.00 91 1013.0
20260506113049 12 0 0.0 4.8 0.00 0.00 0.00 91 1013.0
20260506112540 12 0 0.0 4.8 0.00 0.00 0.00 90 1013.1
20260506112039 12 358 1.6 4.8 0.00 0.00 0.00 91 1013.0
20260506111549 12 351 0.0 4.8 0.00 0.00 0.00 91 1013.0
20260506111039 12 129 0.0 3.2 0.00 0.00 0.00 91 1012.9
20260506110539 12 322 0.0 4.8 0.00 0.00 0.00 92 1013.0
20260506110053 12 322 0.0 4.8 0.00 0.00 0.00 92 1012.9
20260506105539 12 8 0.0 6.4 0.00 0.00 0.00 93 1012.9
20260506105039 12 229 0.0 6.4 0.00 0.00 0.00 93 1013.0
20260506104610 12 18 0.0 4.8 0.00 0.00 0.00 93 1013.0
20260506104038 12 345 1.6 4.8 0.00 0.00 0.00 93 1013.0
20260506103539 11 11 0.0 3.2 0.00 0.00 0.00 93 1012.9
20260506103048 11 10 0.0 4.8 0.00 0.00 0.00 92 1013.1
20260506102540 11 10 0.0 4.8 0.00 0.00 0.00 92 1013.0
20260506102040 11 0 0.0 3.2 0.00 0.00 0.00 93 1012.7
20260506101554 11 164 0.0 3.2 0.00 0.00 0.00 93 1012.7
20260506101039 11 0 0.0 4.8 0.00 0.00 0.00 93 1012.9
20260506100539 11 0 0.0 4.8 0.00 0.00 0.00 93 1012.8
20260506100048 11 357 0.0 3.2 0.00 0.00 0.00 92 1012.8
20260506095543 11 204 0.0 3.2 0.00 0.00 0.00 92 1012.7
20260506095039 11 0 0.0 3.2 0.00 0.00 0.00 92 1012.7
20260506094556 11 204 0.0 3.2 0.00 0.00 0.00 92 1012.8
20260506094038 11 204 0.0 3.2 0.00 0.00 0.00 92 1012.8
20260506093542 11 0 0.0 4.8 0.00 0.00 0.00 92 1012.9
20260506093055 11 204 0.0 4.8 0.00 0.00 0.00 92 1012.8
20260506092542 11 204 0.0 4.8 0.00 0.00 0.00 92 1012.8
20260506092039 11 0 0.0 4.8 0.00 0.00 0.00 92 1012.9
20260506091547 11 0 0.0 3.2 0.00 0.00 0.00 92 1013.0
20260506091040 11 0 0.0 3.2 0.00 0.00 0.00 92 1013.1
20260506090537 11 0 0.0 3.2 0.00 0.00 0.00 92 1013.1
20260506090051 11 0 0.0 17.7 0.00 0.00 0.00 92 1013.1
20260506085536 12 0 0.0 17.7 0.00 0.00 0.00 92 1013.1
20260506085039 12 8 0.0 17.7 0.00 0.00 0.00 92 1013.2
20260506084552 12 0 0.0 3.2 0.00 0.00 0.00 92 1013.1
20260506084039 12 0 0.0 3.2 0.00 0.00 0.00 92 1013.1
20260506083539 12 0 0.0 3.2 0.00 0.00 0.00 92 1013.1
20260506083051 12 241 0.0 3.2 0.00 0.00 0.00 92 1013.2
20260506082542 12 0 0.0 4.8 0.00 0.00 0.00 92 1013.3
20260506082040 12 33 0.0 4.8 0.00 0.00 0.00 92 1013.2
20260506081550 12 210 0.0 3.2 0.00 0.00 0.00 93 1013.2
20260506081038 12 0 0.0 3.2 0.00 0.00 0.00 93 1013.2
20260506080537 12 0 0.0 3.2 0.00 0.00 0.00 93 1013.2
20260506073051 11 299 0.0 4.8 0.00 0.00 0.00 93 1013.2
20260506072537 11 160 0.0 1.6 0.00 0.00 0.00 93 1013.2
20260506072039 11 0 0.0 3.2 0.00 0.00 0.00 93 1013.2
20260506071604 10 0 0.0 3.2 0.00 0.00 0.00 92 1013.2
20260506071039 10 0 0.0 3.2 0.00 0.00 0.00 92 1013.3
20260506070538 10 0 0.0 1.6 0.00 0.00 0.00 92 1013.2
20260506062039 11 0 0.0 3.2 0.00 0.00 0.00 92 1013.2
20260506061546 11 0 0.0 3.2 0.00 0.00 0.00 92 1013.2
20260506061040 11 0 0.0 3.2 0.00 0.00 0.00 92 1013.3
20260506060538 11 0 0.0 4.8 0.00 0.00 0.00 92 1013.3
20260506051039 11 0 0.0 4.8 0.00 0.00 0.00 91 1013.8
20260506050538 11 0 0.0 4.8 0.00 0.00 0.00 91 1013.8
20260506045040 11 0 0.0 4.8 0.00 0.00 0.00 91 1013.8
20260506044559 11 0 0.0 4.8 0.00 0.00 0.00 91 1013.7
20260506044039 11 0 0.0 3.2 0.00 0.00 0.00 91 1013.8
20260506043543 11 0 0.0 4.8 0.00 0.00 0.00 91 1013.7
20260506043045 11 0 0.0 4.8 0.00 0.00 0.00 91 1013.8
20260506042540 11 0 0.0 4.8 0.00 0.00 0.00 91 1013.7
20260506042041 11 92 0.0 3.2 0.00 0.00 0.00 91 1013.6
20260506041603 11 0 0.0 4.8 0.00 0.00 0.00 91 1013.8
20260506041039 11 0 0.0 4.8 0.00 0.00 0.00 91 1013.8
20260506040535 11 0 0.0 4.8 0.00 0.00 0.00 91 1013.8
20260506040054 11 0 0.0 3.2 0.00 0.00 0.00 91 1013.8
20260506035542 11 172 0.0 3.2 0.00 0.00 0.00 91 1013.8
20260506035043 11 0 0.0 3.2 0.00 0.00 0.00 91 1013.7
20260506034549 11 224 0.0 3.2 0.00 0.00 0.00 91 1013.7
20260506034038 11 0 0.0 4.8 0.00 0.00 0.00 91 1013.8
20260506033542 11 0 0.0 4.8 0.00 0.00 0.00 91 1013.8
20260506033048 10 224 0.0 4.8 0.00 0.00 0.00 91 1013.8
20260506032539 10 0 0.0 4.8 0.00 0.00 0.00 91 1013.7
20260506032040 10 0 0.0 3.2 0.00 0.00 0.00 90 1013.6
20260506031555 10 0 0.0 3.2 0.00 0.00 0.00 90 1013.6
20260506031040 10 0 0.0 3.2 0.00 0.00 0.00 90 1013.6
20260506030540 10 0 0.0 3.2 0.00 0.00 0.00 90 1013.6
20260506030052 10 0 0.0 4.8 0.00 0.00 0.00 90 1013.6
20260506025541 10 93 0.0 4.8 0.00 0.00 0.00 90 1013.6
20260506025038 10 0 0.0 4.8 0.00 0.00 0.00 90 1013.5
20260506024549 10 0 0.0 3.2 0.00 0.00 0.00 90 1013.6
20260506024038 10 0 0.0 3.2 0.00 0.00 0.00 89 1013.6
20260506023540 10 0 0.0 3.2 0.00 0.00 0.00 89 1013.6
20260506023048 10 0 0.0 3.2 0.00 0.00 0.00 89 1013.4
20260506022539 10 0 0.0 3.2 0.00 0.00 0.00 89 1013.5
20260506022039 10 0 0.0 3.2 0.00 0.00 0.00 89 1013.6
20260506021548 10 0 0.0 3.2 0.00 0.00 0.00 89 1013.5
20260506021039 10 0 0.0 3.2 0.00 0.00 0.00 89 1013.5
20260506020538 10 0 0.0 1.6 0.00 0.00 0.00 88 1013.6
20260506020047 10 0 0.0 4.8 0.00 0.00 0.00 88 1013.6
20260506015540 10 334 0.0 4.8 0.00 0.00 0.00 88 1013.6
20260506015040 10 201 0.0 3.2 0.00 0.00 0.00 88 1013.4
20260506014554 10 0 0.0 3.2 0.00 0.00 0.00 88 1013.4
20260506014039 10 264 0.0 3.2 0.00 0.00 0.00 88 1013.4
20260506013539 10 0 0.0 1.6 0.00 0.00 0.00 88 1013.4
20260506013047 10 0 0.0 1.6 0.00 0.00 0.00 88 1013.5
20260506012539 10 0 0.0 3.2 0.00 0.00 0.00 88 1013.4
20260506012040 10 0 0.0 3.2 0.00 0.00 0.00 88 1013.4
20260506011553 10 0 0.0 3.2 0.00 0.00 0.00 88 1013.4
20260506011038 10 0 0.0 3.2 0.00 0.00 0.00 88 1013.4
20260506010541 10 0 0.0 3.2 0.00 0.00 0.00 87 1013.3
20260506010049 11 0 0.0 3.2 0.00 0.00 0.00 87 1013.1
20260506005542 11 0 0.0 3.2 0.00 0.00 0.00 87 1013.1
20260506005038 11 0 0.0 3.2 0.00 0.00 0.00 87 1013.0
20260506004555 11 0 0.0 3.2 0.00 0.00 0.00 87 1013.1
20260506004038 11 0 0.0 3.2 0.00 0.00 0.00 87 1013.0
20260506003539 11 0 0.0 6.4 0.00 0.00 0.00 87 1012.8
20260506003049 11 0 0.0 6.4 0.00 0.00 0.00 87 1012.7
20260506002542 11 239 0.0 3.2 0.00 0.00 0.00 87 1012.6
20260506002039 11 0 0.0 3.2 0.00 0.00 0.00 87 1012.3
20260506001607 11 0 0.0 3.2 0.00 0.00 0.00 87 1011.9
20260506001039 11 239 0.0 8.0 0.00 0.00 0.00 86 1011.8
20260506000539 11 0 0.0 8.0 0.00 0.00 0.00 87 1011.6
20260506000048 11 0 0.0 3.2 0.00 0.00 0.00 86 1011.6
20260505235539 11 0 0.0 4.8 0.00 0.00 0.00 86 1011.8
20260505235039 12 134 0.0 4.8 0.00 0.00 0.00 86 1011.7
20260505234552 12 141 0.0 3.2 0.00 0.00 0.00 86 1011.8
20260505234039 12 141 0.0 4.8 0.00 0.00 0.00 86 1011.8
20260505233539 12 141 0.0 4.8 0.00 0.00 0.00 86 1011.9
20260505233055 12 121 0.0 4.8 0.00 0.00 0.00 86 1011.9
20260505232538 12 5 1.6 4.8 0.00 0.00 0.00 86 1012.0
20260505232039 12 312 1.6 4.8 0.00 0.00 0.00 86 1012.0
20260505231554 12 75 1.6 3.2 0.00 0.00 0.00 86 1011.9
20260505231041 12 0 0.0 4.8 0.00 0.00 0.00 86 1011.9
20260505230539 12 45 1.6 4.8 0.00 0.00 0.00 86 1011.9
20260505230049 12 85 0.0 4.8 0.00 0.00 0.00 86 1011.8
20260505225539 12 0 1.6 4.8 0.00 0.00 0.00 86 1011.8
20260505225039 12 0 0.0 3.2 0.00 0.00 0.00 85 1011.7
20260505224550 12 347 0.0 4.8 0.00 0.00 0.00 85 1011.6
20260505224039 12 0 0.0 4.8 0.00 0.00 0.00 85 1011.5
20260505223538 13 110 0.0 4.8 0.00 0.00 0.00 84 1011.5
20260505223057 13 121 0.0 4.8 0.00 0.00 0.00 84 1011.6
20260505222538 13 351 0.0 4.8 0.00 0.00 0.00 84 1011.6
20260505222038 13 19 0.0 6.4 0.00 0.00 0.00 84 1011.3
20260505221559 13 0 0.0 6.4 0.00 0.00 0.00 83 1011.4
20260505221039 13 356 1.6 6.4 0.00 0.00 0.00 82 1011.4
20260505220542 14 253 0.0 4.8 0.00 0.00 0.00 82 1011.4
20260505220056 14 253 1.6 4.8 0.00 0.00 0.00 82 1011.4
20260505215539 14 0 0.0 4.8 0.00 0.00 0.00 82 1011.4
20260505215039 14 341 1.6 4.8 0.00 0.00 0.00 82 1011.5
20260505214604 14 340 0.0 4.8 0.00 0.00 0.00 82 1011.5
20260505214040 14 0 0.0 4.8 0.00 0.00 0.00 82 1011.4
20260505213535 14 85 0.0 3.2 0.00 0.00 0.00 82 1011.5
20260505213058 14 0 0.0 4.8 0.00 0.00 0.00 82 1011.5
20260505212538 14 0 0.0 4.8 0.00 0.00 0.00 83 1011.6
20260505212038 14 0 1.6 4.8 0.00 0.00 0.00 82 1011.5
20260505211557 14 0 0.0 4.8 0.00 0.00 0.00 82 1011.3
20260505211040 14 1 1.6 6.4 0.00 0.00 0.00 82 1011.3
20260505210536 15 275 1.6 6.4 0.00 0.00 0.00 82 1011.1
20260505210059 15 90 1.6 6.4 0.00 0.00 0.00 82 1011.3
20260505205539 15 287 1.6 4.8 0.00 0.00 0.00 81 1011.3
20260505205039 15 323 1.6 4.8 0.00 0.00 0.00 82 1011.3
20260505204554 15 0 0.0 16.1 0.00 0.00 0.00 82 1011.2
20260505204039 15 24 1.6 16.1 0.00 0.00 0.00 81 1011.3
20260505203539 15 11 0.0 6.4 0.00 0.00 0.00 80 1011.3
20260505203051 15 0 0.0 6.4 0.00 0.00 0.00 80 1011.3
20260505202538 15 212 1.6 6.4 0.00 0.00 0.00 80 1011.2
20260505202040 15 299 1.6 4.8 0.00 0.00 0.00 80 1011.3
20260505201559 16 24 0.0 3.2 0.00 0.00 0.00 79 1011.3
20260505201039 16 334 1.6 3.2 0.00 0.00 0.00 80 1011.1
20260505200540 16 0 0.0 4.8 0.00 0.00 0.00 79 1011.2
20260505200048 16 8 0.0 6.4 0.00 0.00 0.00 79 1011.3
20260505195538 16 45 0.0 6.4 0.00 0.00 0.00 79 1011.5
20260505195035 16 21 1.6 6.4 0.00 0.00 0.00 79 1011.5
20260505194549 16 0 1.6 4.8 0.00 0.00 0.00 77 1011.5
20260505194039 16 38 1.6 8.0 0.00 0.00 0.00 78 1011.6
20260505193541 16 45 0.0 8.0 0.00 0.00 0.00 78 1011.5
20260505193050 17 117 1.6 8.0 0.00 0.00 0.00 76 1011.5
20260505192542 17 135 1.6 4.8 0.00 0.00 0.00 75 1011.6
20260505192039 18 227 0.0 4.8 0.00 0.00 0.00 74 1011.5
20260505191552 18 89 0.0 4.8 0.00 0.00 0.00 74 1011.5
20260505191039 18 0 0.0 4.8 0.00 0.00 0.00 75 1011.4
20260505190539 18 119 0.0 4.8 0.00 0.00 0.00 75 1011.4
20260505190104 18 123 1.6 4.8 0.00 0.00 0.00 73 1011.7
20260505185539 18 0 1.6 4.8 0.00 0.00 0.00 74 1011.6
20260505185039 18 10 0.0 4.8 0.00 0.00 0.00 73 1011.6
20260505184605 18 24 0.0 4.8 0.00 0.00 0.00 74 1011.6
20260505184039 18 12 1.6 3.2 0.00 0.00 0.00 74 1011.5
20260505183539 19 56 0.0 3.2 0.00 0.00 0.00 75 1011.8
20260505183054 19 205 0.0 4.8 0.00 0.00 0.00 75 1011.6
20260505182538 19 342 1.6 4.8 0.00 0.00 0.00 77 1011.8
20260505182038 20 169 1.6 4.8 0.00 0.00 0.00 75 1011.8
20260505181547 20 90 0.0 3.2 0.00 0.00 0.00 74 1011.8
20260505181043 20 0 0.0 4.8 0.00 0.00 0.00 72 1011.8
20260505180539 20 85 0.0 4.8 0.00 0.00 0.00 75 1011.8
20260505180055 20 215 1.6 4.8 0.00 0.00 0.00 74 1011.8
20260505175539 20 289 0.0 4.8 0.00 0.00 0.00 75 1011.8
20260505175039 20 223 0.0 4.8 0.00 0.00 0.00 74 1011.7
20260505174552 20 218 1.6 4.8 0.00 0.00 0.00 75 1011.6
20260505174040 20 218 0.0 4.8 0.00 0.00 0.00 75 1011.7
20260505173539 20 217 1.6 6.4 0.00 0.00 0.00 77 1011.8
20260505173049 20 0 1.6 6.4 0.00 0.00 0.00 77 1011.8
20260505172538 20 52 1.6 6.4 0.00 0.00 0.00 73 1011.9
20260505172038 20 203 0.0 6.4 0.00 0.00 0.00 74 1012.0
20260505171548 20 127 1.6 6.4 0.00 0.00 0.00 75 1012.0
20260505171038 20 40 1.6 6.4 0.00 0.00 0.00 73 1012.1